User: anonymous   Login
Location: 相模原市立博物館
(35.5593°N, 139.3931°E)
Time: 03:57:00
(UTC+09:00)
Language:

M-CUBED/EXP-1 PRIME - Orbit

View from above orbital plane
View from above orbital plane
View from above satellite
View from above satellite

Ground track
Ground track

The orbit data is extracted from the following two-line orbital elements,

1 37855U 11061F   22018.67445030  .00005314  00000-0  25177-3 0  9997
2 37855 101.7183  59.1618 0162231 149.9501 211.1144 15.09271670558623
Epoch (UTC): 18 January 2022 16:11:12
Eccentricity: 0.0162231
inclination: 101.7183°
perigee height: 426 km
apogee height: 650 km
right ascension of ascending node: 59.1618°
argument of perigee: 149.9501°
revolutions per day: 15.09271670
mean anomaly at epoch: 211.1144°
orbit number at epoch: 55862

The dashed part of the orbit path shows where the satellite is in the earth's shadow,  

DLR